TimeCST,TemperatureF,Dew PointF,Humidity,Sea Level PressureIn,VisibilityMPH,Wind Direction,Wind SpeedMPH,Gust SpeedMPH,PrecipitationIn,Events,Conditions,WindDirDegrees,DateUTC
12:53 AM,-17.0,-23.1,74,30.54,10.0,Calm,Calm,-,N/A,,Clear,0,2014-02-11 06:53:00
1:53 AM,-18.0,-25.1,70,30.54,10.0,Calm,Calm,-,N/A,,Clear,0,2014-02-11 07:53:00
2:53 AM,-20.9,-27.9,70,30.53,10.0,Calm,Calm,-,N/A,,Clear,0,2014-02-11 08:53:00
3:53 AM,-20.9,-29.0,66,30.52,10.0,Calm,Calm,-,N/A,,Clear,0,2014-02-11 09:53:00
4:53 AM,-23.1,-29.9,70,30.50,10.0,Calm,Calm,-,N/A,,Clear,0,2014-02-11 10:53:00
5:53 AM,-24.0,-31.0,70,30.50,10.0,Calm,Calm,-,N/A,,Clear,0,2014-02-11 11:53:00
6:53 AM,-24.0,-32.1,66,30.47,10.0,Calm,Calm,-,N/A,,Clear,0,2014-02-11 12:53:00
7:53 AM,-20.0,-23.1,86,30.45,10.0,SE,6.9,-,N/A,,Clear,140,2014-02-11 13:53:00
8:53 AM,-11.9,-17.0,78,30.43,10.0,SE,9.2,-,N/A,,Clear,140,2014-02-11 14:53:00
9:53 AM,-2.9,-9.9,72,30.40,10.0,South,12.7,-,N/A,,Clear,180,2014-02-11 15:53:00
10:53 AM,1.9,-8.0,63,30.37,10.0,South,11.5,23.0,N/A,,Clear,170,2014-02-11 16:53:00
11:53 AM,6.1,-5.1,60,30.33,10.0,South,18.4,-,N/A,,Scattered Clouds,170,2014-02-11 17:53:00
12:53 PM,8.1,-2.9,61,30.29,10.0,South,18.4,31.1,N/A,,Scattered Clouds,180,2014-02-11 18:53:00
1:53 PM,10.0,-2.0,58,30.25,10.0,South,16.1,-,N/A,,Overcast,180,2014-02-11 19:53:00
2:16 PM,10.4,-0.4,62,30.11,10.0,South,23.0,-,N/A,,Overcast,170,2014-02-11 20:16:00
2:53 PM,12.0,-0.0,59,30.21,10.0,South,19.6,28.8,N/A,,Overcast,170,2014-02-11 20:53:00
3:53 PM,10.9,-0.0,61,30.17,10.0,SSE,18.4,-,N/A,,Overcast,160,2014-02-11 21:53:00
4:53 PM,12.0,-0.0,59,30.14,10.0,SSE,13.8,27.6,N/A,,Overcast,160,2014-02-11 22:53:00
5:53 PM,12.0,1.0,61,30.12,10.0,SSE,13.8,23.0,N/A,,Overcast,160,2014-02-11 23:53:00
6:53 PM,12.0,1.9,64,30.12,10.0,South,17.3,-,N/A,,Overcast,170,2014-02-12 00:53:00
7:32 PM,12.2,3.2,67,30.00,1.8,South,16.1,-,0.00,Snow,Light Snow,180,2014-02-12 01:32:00
7:53 PM,12.9,5.0,71,30.12,2.0,South,15.0,21.9,0.01,Snow,Light Snow,180,2014-02-12 01:53:00
8:07 PM,12.2,5.0,73,29.99,5.0,South,13.8,-,0.00,Snow,Light Snow,170,2014-02-12 02:07:00
8:38 PM,12.2,5.0,73,29.99,10.0,South,13.8,-,0.00,,Overcast,170,2014-02-12 02:38:00
8:53 PM,14.0,5.0,67,30.10,10.0,South,13.8,-,0.00,,Overcast,180,2014-02-12 02:53:00
9:21 PM,14.0,6.8,73,29.99,3.0,South,15.0,20.7,0.00,Snow,Light Snow,180,2014-02-12 03:21:00
9:30 PM,14.0,6.8,73,29.99,2.0,South,13.8,-,0.00,Snow,Light Snow,180,2014-02-12 03:30:00
9:43 PM,14.0,6.8,73,29.99,1.5,South,12.7,-,0.00,Snow,Light Snow,170,2014-02-12 03:43:00
9:53 PM,14.0,8.1,77,30.09,1.2,South,11.5,-,0.01,Snow,Light Snow,170,2014-02-12 03:53:00
10:44 PM,14.0,8.6,79,29.98,2.5,South,11.5,-,0.01,Snow,Light Snow,170,2014-02-12 04:44:00
10:51 PM,14.0,8.6,79,29.98,3.0,South,11.5,-,0.01,Snow,Light Snow,170,2014-02-12 04:51:00
10:53 PM,14.0,8.1,77,30.08,3.0,South,11.5,-,0.01,Snow,Light Snow,170,2014-02-12 04:53:00
11:08 PM,14.0,8.6,79,29.98,2.5,South,13.8,-,0.00,Snow,Light Snow,170,2014-02-12 05:08:00
11:21 PM,14.0,8.6,79,29.98,3.0,South,13.8,-,0.01,Snow,Light Snow,170,2014-02-12 05:21:00
11:34 PM,14.0,8.6,79,29.98,3.0,South,10.4,-,0.01,Snow,Light Snow,180,2014-02-12 05:34:00
11:53 PM,15.1,8.1,74,30.08,7.0,South,11.5,-,0.01,,Overcast,180,2014-02-12 05:53:00